IRIDIUM 25 [+]

Last updated on Thu Feb 08 2018 00:19:33 GMT+0000 (Coordinated Universal Time)

1 24904U 97043B 18038.40040581 .00000147 00000-0 45494-4 0 9996 2 24904 86.4002 157.1462 0001926 97.0651 263.0764 14.34219487 71541
UTC large
Height (km)
Speed (km/s)
/
Latitude / Longitude
Inclination (degrees)
Orbital Period (minutes)
Azimuth
Elevation
Range (km)
Doppler Factor

Next 0 passes for location: London (51.5072 / 0.1276)

Sorry there are no passes over London.